Waarnemingen

Advertentie
Mijn weer
Altnaharra, Groot Brittannië (3044): temperatuur & dauwpunt: 26.03.2020 19:00:00 - 01.04.2020 19:00:00 (BST)Altnaharra, Groot Brittannië (3044): temperatuur -20cm & temperatuur -100cm: 26.03.2020 19:00:00 - 01.04.2020 19:00:00 (BST)Altnaharra, Groot Brittannië (3044): windsnelheid & windstoten: 26.03.2020 19:00:00 - 01.04.2020 19:00:00 (BST)Altnaharra, Groot Brittannië (3044): windrichting: 26.03.2020 19:00:00 - 01.04.2020 19:00:00 (BST)Altnaharra, Groot Brittannië (3044): luchtdruk: 26.03.2020 19:00:00 - 01.04.2020 19:00:00 (BST)Altnaharra, Groot Brittannië (3044): zicht: 26.03.2020 19:00:00 - 01.04.2020 19:00:00 (BST)Altnaharra, Groot Brittannië (3044): Zonneschijnduur: 26.03.2020 19:00:00 - 01.04.2020 19:00:00 (BST)Altnaharra, Groot Brittannië (3044): neerslag: 26.03.2020 19:00:00 - 01.04.2020 19:00:00 (BST)
Datum & Tijd tt [°C] td [°C] tt -20cm [°C] tt -100cm [°C] ff [km/u] ff [kn] fx [km/u] fx [kn] dd ppp [hPa] vv [km] sd [min] rr [mm]
01.04.2020 19:00:00 6,9 2,6 - - 28 15 54 29 NW 1014,2 19 0 0,0
01.04.2020 18:00:00 7,4 2,0 - - 35 19 54 29 W 1014,4 16 6 0,0
01.04.2020 17:00:00 7,9 2,9 - - 34 18 52 28 W 1014,6 20 12 0,0
01.04.2020 16:00:00 8,1 3,5 - - 28 15 50 27 WNW 1015,2 17 0 0,0
01.04.2020 15:00:00 8,2 5,7 - - 34 18 52 28 W 1015,0 16 0 0,0
01.04.2020 14:00:00 7,8 6,5 - - 34 18 50 27 W 1015,2 21 12 0,4
01.04.2020 13:00:00 8,2 7,0 - - 34 18 48 26 W 1015,2 22 0 0,8
01.04.2020 12:00:00 7,4 6,1 - - 28 15 52 28 W 1015,8 5 0 1,2
01.04.2020 11:00:00 7,0 5,6 - - 24 13 - - WZW 1016,4 10 0 1,2
01.04.2020 10:00:00 5,7 4,1 5,7 5,7 15 8 - - ZZW 1017,4 12 0 0,4
01.04.2020 09:00:00 6,6 3,6 - - 24 13 - - WZW 1018,0 12 0 0,0
01.04.2020 08:00:00 6,4 2,8 - - 28 15 52 28 WNW 1018,7 30 0 0,0
01.04.2020 07:00:00 6,0 3,2 - - 34 18 52 28 NW 1019,5 18 0 0,0
01.04.2020 06:00:00 6,0 3,1 - - 35 19 50 27 WNW 1020,6 25 0 0,0
01.04.2020 05:00:00 5,8 3,3 - - 34 18 46 25 W 1021,1 29 0 0,2
01.04.2020 04:00:00 5,7 2,9 - - 29 16 50 27 WNW 1022,2 35 0 0,0
01.04.2020 03:00:00 5,6 3,1 - - 28 15 - - WNW 1023,3 18 0 0,0
01.04.2020 02:00:00 5,4 3,1 - - 26 14 - - WZW 1024,4 24 0 0,0
01.04.2020 01:00:00 5,4 2,8 - - 28 15 - - WZW 1025,3 45 - 0,0
01.04.2020 00:00:00 4,6 2,1 - - 4 2 - - NO 1026,4 45 0 0,0
31.03.2020 23:00:00 5,5 2,8 - - 8 4 - - WZW 1027,6 45 0 0,0
31.03.2020 22:00:00 5,4 3,0 - - 21 11 - - W 1028,4 35 0 0,0
31.03.2020 21:00:00 5,4 3,0 - - 15 8 - - NNW 1029,1 30 0 0,0
31.03.2020 20:00:00 5,7 3,3 - - 13 7 - - NW 1029,4 18 0 0,0
31.03.2020 19:00:00 6,2 4,2 - - 18 10 - - NNW 1030,1 19 0 0,0
31.03.2020 18:00:00 6,4 5,0 - - 8 4 - - W 1030,5 12 0 0,2
31.03.2020 17:00:00 7,4 4,7 - - 24 13 - - W 1031,0 24 0 -
31.03.2020 16:00:00 7,1 4,6 - - 24 13 - - WNW 1031,5 22 0 0,0
31.03.2020 15:00:00 7,0 5,5 - - 26 14 46 25 W 1032,0 23 0 0,2
31.03.2020 14:00:00 7,8 4,0 - - 26 14 - - W 1032,3 30 0 0,0
31.03.2020 13:00:00 6,9 3,8 - - 34 18 - - WNW 1032,7 16 0 0,0
31.03.2020 12:00:00 7,2 3,5 - - 29 16 - - W 1033,2 40 0 0,0
31.03.2020 11:00:00 6,9 3,9 - - 9 5 - - ZW 1034,0 40 0 0,2
31.03.2020 10:00:00 6,1 4,2 5,5 5,7 16 9 - - W 1034,1 5 0 0,0
31.03.2020 09:00:00 5,4 3,5 - - 26 14 - - NW 1034,3 50 0 0,0
31.03.2020 08:00:00 4,9 4,2 - - 13 7 - - N 1035,3 25 0 0,2
31.03.2020 07:00:00 4,7 4,0 - - 16 9 - - W 1035,2 9 0 0,6
31.03.2020 06:00:00 4,9 3,5 - - 9 5 - - WZW 1035,2 35 0 0,0
31.03.2020 05:00:00 4,6 3,9 - - 16 9 - - W 1035,6 4,7 0 0,2
31.03.2020 04:00:00 4,7 4,1 - - 13 7 - - W 1036,0 12 0 0,2
31.03.2020 03:00:00 4,4 3,9 - - 4 2 - - W 1036,2 7 0 0,2
31.03.2020 02:00:00 3,5 2,9 - - 4 2 - - W 1036,7 18 0 0,0
31.03.2020 01:00:00 3,6 2,9 - - 4 2 - - W 1037,2 45 - 0,2
31.03.2020 00:00:00 3,3 2,6 - - 8 4 - - W 1037,7 30 0 0,0
30.03.2020 23:00:00 3,8 3,1 - - 4 2 - - ZW 1038,1 30 0 0,0
30.03.2020 22:00:00 4,3 3,6 - - 11 6 - - W 1038,4 28 0 0,0
30.03.2020 21:00:00 3,6 2,7 - - 4 2 - - ZW 1038,4 21 0 0,0
30.03.2020 20:00:00 5,0 4,0 - - 13 7 - - NW 1038,3 24 0 0,0
30.03.2020 19:00:00 5,9 3,9 - - 18 10 - - W 1038,5 13 0 0,0
30.03.2020 18:00:00 6,3 4,7 - - 16 9 - - WNW 1038,7 18 0 0,4
30.03.2020 17:00:00 6,2 4,3 - - 24 13 - - WNW 1038,8 11 0 0,0
30.03.2020 16:00:00 7,3 4,0 - - 21 11 - - NW 1038,8 22 0 0,0
30.03.2020 15:00:00 7,4 5,2 - - 21 11 - - WNW 1039,2 20 0 0,2
30.03.2020 14:00:00 7,8 4,5 - - 29 16 - - WNW 1039,2 26 12 0,2
30.03.2020 13:00:00 7,9 5,5 - - 22 12 - - W 1039,8 8 6 0,0
30.03.2020 12:00:00 6,9 5,3 - - 16 9 - - WNW 1040,2 35 6 0,0
30.03.2020 11:00:00 6,9 5,0 - - 21 11 - - WNW 1040,3 20 0 0,2
30.03.2020 10:00:00 6,4 5,1 5,2 5,7 21 11 - - W 1040,8 27 0 0,4
30.03.2020 09:00:00 5,7 4,9 - - 9 5 - - WNW 1040,9 11 0 0,2
30.03.2020 08:00:00 5,3 4,4 - - 16 9 - - W 1041,0 14 0 0,0
30.03.2020 07:00:00 4,9 4,1 - - 16 9 - - W 1041,0 40 0 0,8
30.03.2020 06:00:00 4,2 3,3 - - 11 6 - - WNW 1041,2 17 0 0,2
30.03.2020 05:00:00 5,1 3,9 - - 21 11 - - WNW 1041,3 30 0 0,2
30.03.2020 04:00:00 6,1 4,7 - - 21 11 - - WNW 1041,3 17 0 0,0
30.03.2020 03:00:00 5,9 4,2 - - 22 12 - - W 1041,8 12 0 0,0
30.03.2020 02:00:00 6,2 4,4 - - 24 13 - - WNW 1042,2 12 0 0,0
30.03.2020 01:00:00 6,2 4,2 - - 26 14 - - W 1042,6 14 - 0,0
30.03.2020 00:00:00 6,2 4,0 - - 22 12 - - WNW 1043,2 19 0 0,0
29.03.2020 23:00:00 6,0 4,1 - - 22 12 - - W 1043,4 16 0 0,0
29.03.2020 22:00:00 5,9 4,3 - - 24 13 - - WNW 1043,7 16 0 0,0
29.03.2020 21:00:00 5,8 4,2 - - 26 14 - - W 1044,1 14 0 0,4
29.03.2020 20:00:00 5,5 3,7 - - 26 14 - - WNW 1044,1 23 0 0,2
29.03.2020 19:00:00 6,1 3,5 - - 26 14 - - W 1044,4 24 0 0,0
29.03.2020 18:00:00 6,0 4,0 - - 28 15 - - W 1044,7 40 0 0,2
29.03.2020 17:00:00 6,1 4,5 - - 31 17 - - W 1045,3 12 0 0,4
29.03.2020 16:00:00 5,5 4,2 - - 28 15 - - W 1046,0 4,3 0 0,6
29.03.2020 15:00:00 5,8 3,4 - - 24 13 - - W 1046,2 19 0 0,2
29.03.2020 14:00:00 7,1 1,6 - - 34 18 46 25 W 1046,7 35 6 0,0
29.03.2020 13:00:00 7,0 0,6 - - 28 15 - - WZW 1046,9 45 6 0,0
29.03.2020 12:00:00 6,1 0,2 - - 29 16 - - WZW 1047,5 45 6 0,0
29.03.2020 11:00:00 5,4 -0,6 - - 24 13 - - WZW 1048,0 50 0 0,0
29.03.2020 10:00:00 4,3 -1,8 5,2 5,7 13 7 - - W 1048,7 40 0 0,0
29.03.2020 09:00:00 2,7 -1,7 - - 2 1 - - ZW 1048,8 50 0 0,0
29.03.2020 08:00:00 1,0 -1,9 - - 9 5 - - W 1049,1 50 0 0,0
29.03.2020 07:00:00 0,7 -3,0 - - 2 1 - - NW 1049,1 50 0 0,0
29.03.2020 06:00:00 0,5 -3,2 - - 4 2 - - WNW 1049,0 50 0 0,0
29.03.2020 05:00:00 0,3 -3,0 - - 4 2 - - W 1049,2 50 0 0,0
29.03.2020 04:00:00 0,0 -3,2 - - 5 3 - - WNW 1049,6 45 0 0,0
29.03.2020 03:00:00 1,4 -4,0 - - 5 3 - - NW 1049,7 50 0 0,0
29.03.2020 02:00:00 0,7 -4,1 - - 8 4 - - WNW 1049,8 45 0 0,0
29.03.2020 01:00:00 1,4 -4,5 - - 9 5 - - N 1049,7 40 - 0,0
29.03.2020 00:00:00 1,5 -5,0 - - 8 4 - - NNW 1049,3 50 0 0,0
28.03.2020 23:00:00 1,6 -5,3 - - 15 8 - - NNW 1049,1 50 0 0,0
28.03.2020 22:00:00 0,2 -5,9 - - 11 6 - - NNW 1048,9 50 0 0,0
28.03.2020 21:00:00 1,4 -5,1 - - 8 4 - - N 1048,3 50 0 0,0
28.03.2020 20:00:00 1,7 -5,6 - - 16 9 - - N 1047,8 50 0 0,0
28.03.2020 19:00:00 2,8 -2,6 - - 22 12 - - N 1046,9 25 42 0,0
28.03.2020 18:00:00 3,8 -4,3 - - 22 12 - - N 1046,3 30 36 0,0
28.03.2020 17:00:00 4,5 -2,0 - - 22 12 - - N 1045,9 21 6 0,0
28.03.2020 16:00:00 4,4 -1,6 - - 24 13 - - N 1045,5 35 0 0,0
28.03.2020 15:00:00 3,6 -0,6 - - 34 18 48 26 N 1045,1 26 24 0,0
28.03.2020 14:00:00 2,3 -0,6 - - 31 17 48 26 N 1045,2 9 36 0,2
28.03.2020 13:00:00 3,8 0,0 - - 21 11 46 25 N 1044,3 24 24 0,0
28.03.2020 12:00:00 4,9 -0,7 - - 28 15 - - N 1043,4 18 12 0,0
28.03.2020 11:00:00 3,6 -0,7 - - 28 15 - - NNW 1042,5 23 12 0,0
28.03.2020 10:00:00 1,1 -0,1 5,7 5,5 21 11 - - NW 1042,0 12 0 0,6
28.03.2020 09:00:00 3,8 -0,3 - - 22 12 - - NW 1040,9 30 0 0,0
28.03.2020 08:00:00 3,4 0,2 - - 22 12 - - NNW 1039,9 35 0 0,0
28.03.2020 07:00:00 2,2 1,4 - - 4 2 - - NW 1039,2 16 0 0,0
28.03.2020 06:00:00 3,1 1,9 - - 9 5 - - W 1038,9 17 0 0,2
28.03.2020 05:00:00 3,7 2,5 - - 15 8 - - WNW 1038,3 7 0 0,0
28.03.2020 04:00:00 2,0 0,6 - - 4 2 - - WNW 1038,2 25 0 0,0
28.03.2020 03:00:00 3,6 2,2 - - 9 5 - - WNW 1037,9 18 0 0,0
28.03.2020 02:00:00 3,6 2,6 - - 4 2 - - ZZW 1037,4 15 0 0,0
28.03.2020 01:00:00 3,8 2,9 - - 2 1 - - ZW 1036,9 23 - 0,2
28.03.2020 00:00:00 4,7 4,1 - - 9 5 - - WNW 1036,4 14 0 0,6
27.03.2020 23:00:00 2,7 2,1 - - 5 3 - - WNW 1036,1 16 0 0,2
27.03.2020 22:00:00 1,3 0,4 - - 4 2 - - WNW 1035,7 35 0 0,0
27.03.2020 21:00:00 0,9 -0,8 - - 2 1 - - WZW 1035,5 30 0 0,0
27.03.2020 20:00:00 4,2 0,7 - - 4 2 - - WZW 1034,7 45 30 0,0
27.03.2020 19:00:00 7,3 2,0 - - 13 7 - - WNW 1034,0 40 42 0,0
27.03.2020 18:00:00 8,3 2,5 - - 16 9 - - NW 1033,5 45 42 0,0
27.03.2020 17:00:00 9,0 1,9 - - 16 9 - - NW 1033,0 40 24 0,0
27.03.2020 16:00:00 9,1 2,3 - - 15 8 - - NW 1033,1 45 24 0,0
27.03.2020 15:00:00 8,5 3,2 - - 15 8 - - WNW 1032,9 50 18 0,0
27.03.2020 14:00:00 8,4 1,5 - - 13 7 - - NNW 1032,9 45 18 0,0
27.03.2020 13:00:00 8,4 2,5 - - 13 7 - - NNW 1032,7 30 18 0,0
27.03.2020 12:00:00 8,7 1,8 - - 8 4 - - W 1032,6 50 36 0,0
27.03.2020 11:00:00 8,3 3,3 - - 8 4 - - ZW 1032,1 30 60 0,0
27.03.2020 10:00:00 5,3 4,5 5,7 5,4 2 1 - - O 1031,9 35 54 0,0
27.03.2020 09:00:00 -0,3 -0,5 - - 4 2 - - WNW 1031,9 35 18 0,0
27.03.2020 08:00:00 -2,2 -2,4 - - 4 2 - - WNW 1031,4 35 24 0,0
27.03.2020 07:00:00 -2,8 -3,2 - - 4 2 - - WNW 1030,7 35 0 0,0
27.03.2020 06:00:00 -1,7 -2,1 - - 0 0 - - N 1030,4 40 0 0,0
27.03.2020 05:00:00 0,1 -0,2 - - 4 2 - - WNW 1030,1 45 0 0,0
27.03.2020 04:00:00 0,4 0,0 - - 8 4 - - W 1030,2 27 0 0,0
27.03.2020 03:00:00 0,1 -0,2 - - 2 1 - - NW 1030,1 30 0 0,0
27.03.2020 02:00:00 -0,7 -1,0 - - 5 3 - - WNW 1030,0 30 0 0,0
27.03.2020 01:00:00 -1,7 -2,2 - - 5 3 - - WNW 1029,8 30 - 0,0
27.03.2020 00:00:00 -0,5 -1,2 - - 2 1 - - W 1029,4 30 0 0,0
26.03.2020 23:00:00 0,7 -0,5 - - 8 4 - - W 1029,4 24 0 0,0
26.03.2020 22:00:00 4,8 2,6 - - 9 5 - - NO 1029,3 35 0 0,0
26.03.2020 21:00:00 5,6 2,5 - - 11 6 - - ONO 1029,3 28 0 0,0
26.03.2020 20:00:00 6,0 2,9 - - 11 6 - - ONO 1028,8 40 12 0,0
26.03.2020 19:00:00 - - - - - - - - - - - - -

tt = temperatuur
td = dauwpunt
tt -20cm = temperatuur -20cm
tt -100cm = temperatuur -100cm
ff = windsnelheid
fx = windstoten
dd = windrichting
ppp = luchtdruk
vv = zicht
sd = Zonneschijnduur
rr = neerslag

Weerstations in de omgeving